PROXIMA II

Last updated on Tue May 21 2024 00:03:37 GMT+0000 (Coordinated Universal Time)

1 43696U 18088G 24141.37186076 .08976418 -14898-5 61061-3 0 9999 2 43696 84.9868 191.8163 0011681 257.2382 102.7618 16.40402710308379

Satellite not in orbit

PROXIMA II